contact:dominique.lefevre@mio.osupytheas.fr, maurice.libes@osupytheas.fr, didier.mallarino@osupytheas.fr
Project:EMSO http://www.emso-fr.org/EMSO-France
Depth: 2436.0 m
Title:EMSO Ligure Ouest : Data MII capteur MICROCAT
DateTime_Computer,Latitude,Longitude,Temperature,Conductivity,Pressure,DateTime_Instrument
DateTime_Computer,Latitude,Longitude,degC,S m-1,dbar,DateTime_Instrument
2017-10-16T00:00:22Z,42.805,6.029,13.2948,4.60015,2471.912,2017-10-16T02:01:47Z
2017-10-16T00:01:57Z,42.805,6.029,13.2960,4.60012,2471.897,2017-10-16T02:03:22Z
2017-10-16T00:03:32Z,42.805,6.029,13.2948,4.60015,2471.912,2017-10-16T02:04:57Z
2017-10-16T00:05:07Z,42.805,6.029,13.2948,4.60015,2471.897,2017-10-16T02:06:31Z
2017-10-16T00:06:41Z,42.805,6.029,13.3000,4.60046,2471.919,2017-10-16T02:08:06Z
2017-10-16T00:08:16Z,42.805,6.029,13.2993,4.60026,2471.949,2017-10-16T02:09:41Z
2017-10-16T00:09:51Z,42.805,6.029,13.3009,4.60007,2471.957,2017-10-16T02:11:16Z
2017-10-16T00:11:26Z,42.805,6.029,13.3003,4.60028,2471.934,2017-10-16T02:12:51Z
2017-10-16T00:13:01Z,42.805,6.029,13.2973,4.60026,2471.957,2017-10-16T02:14:25Z
2017-10-16T00:14:36Z,42.805,6.029,13.3022,4.60037,2471.919,2017-10-16T02:16:00Z
2017-10-16T00:16:10Z,42.805,6.029,13.3038,4.60032,2471.934,2017-10-16T02:17:35Z
2017-10-16T00:17:45Z,42.805,6.029,13.3002,4.60008,2471.957,2017-10-16T02:19:10Z
2017-10-16T00:19:20Z,42.805,6.029,13.3021,4.60062,2471.934,2017-10-16T02:20:45Z
2017-10-16T00:20:55Z,42.805,6.029,13.2957,4.60012,2471.927,2017-10-16T02:22:20Z
2017-10-16T00:22:30Z,42.805,6.029,13.2943,4.60018,2471.934,2017-10-16T02:23:55Z
2017-10-16T00:24:05Z,42.805,6.029,13.2941,4.60035,2471.957,2017-10-16T02:25:29Z
2017-10-16T00:25:39Z,42.805,6.029,13.2957,4.60004,2471.934,2017-10-16T02:27:04Z
2017-10-16T00:27:14Z,42.805,6.029,13.3002,4.60028,2471.934,2017-10-16T02:28:39Z
2017-10-16T00:28:49Z,42.805,6.029,13.3035,4.60035,2471.957,2017-10-16T02:30:14Z
2017-10-16T00:30:24Z,42.805,6.029,13.3015,4.60044,2471.934,2017-10-16T02:31:49Z
2017-10-16T00:31:59Z,42.805,6.029,13.3008,4.60030,2471.934,2017-10-16T02:33:24Z
2017-10-16T00:33:34Z,42.805,6.029,13.3010,4.60021,2471.897,2017-10-16T02:34:58Z
2017-10-16T00:35:09Z,42.805,6.029,13.3006,4.60018,2471.912,2017-10-16T02:36:33Z
2017-10-16T00:36:43Z,42.805,6.029,13.3011,4.60023,2471.934,2017-10-16T02:38:08Z
2017-10-16T00:38:18Z,42.805,6.029,13.3008,4.60018,2471.934,2017-10-16T02:39:43Z
2017-10-16T00:39:53Z,42.805,6.029,13.3018,4.60005,2471.957,2017-10-16T02:41:18Z
2017-10-16T00:41:28Z,42.805,6.029,13.2993,4.60007,2471.942,2017-10-16T02:42:53Z
2017-10-16T00:43:03Z,42.805,6.029,13.2994,4.60017,2471.957,2017-10-16T02:44:27Z
2017-10-16T00:44:38Z,42.805,6.029,13.2998,4.60007,2471.979,2017-10-16T02:46:02Z
2017-10-16T00:46:12Z,42.805,6.029,13.3016,4.60018,2471.942,2017-10-16T02:47:37Z
2017-10-16T00:47:47Z,42.805,6.029,13.3023,4.60019,2471.934,2017-10-16T02:49:12Z
2017-10-16T00:49:22Z,42.805,6.029,13.3022,4.60006,2471.934,2017-10-16T02:50:47Z
2017-10-16T00:50:57Z,42.805,6.029,13.3021,4.60012,2471.934,2017-10-16T02:52:22Z
2017-10-16T00:52:32Z,42.805,6.029,13.3021,4.60009,2471.957,2017-10-16T02:53:56Z
2017-10-16T00:54:07Z,42.805,6.029,13.3019,4.60006,2471.934,2017-10-16T02:55:31Z
2017-10-16T00:55:41Z,42.805,6.029,13.2998,4.60009,2471.957,2017-10-16T02:57:06Z
2017-10-16T00:57:16Z,42.805,6.029,13.3003,4.60018,2471.934,2017-10-16T02:58:41Z
2017-10-16T00:58:51Z,42.805,6.029,13.3008,4.60020,2471.957,2017-10-16T03:00:16Z
2017-10-16T01:00:26Z,42.805,6.029,13.3001,4.60011,2471.934,2017-10-16T03:01:51Z
2017-10-16T01:02:01Z,42.805,6.029,13.3011,4.60012,2471.957,2017-10-16T03:03:25Z
2017-10-16T01:03:36Z,42.805,6.029,13.3019,4.60015,2471.934,2017-10-16T03:05:00Z
2017-10-16T01:05:10Z,42.805,6.029,13.3014,4.60012,2471.942,2017-10-16T03:06:35Z
2017-10-16T01:06:45Z,42.805,6.029,13.3011,4.60019,2471.957,2017-10-16T03:08:10Z
2017-10-16T01:08:20Z,42.805,6.029,13.3011,4.60034,2471.957,2017-10-16T03:09:45Z
2017-10-16T01:09:55Z,42.805,6.029,13.3010,4.60009,2471.957,2017-10-16T03:11:20Z
2017-10-16T01:11:30Z,42.805,6.029,13.3014,4.60014,2471.912,2017-10-16T03:12:54Z
2017-10-16T01:13:05Z,42.805,6.029,13.2993,4.60008,2471.957,2017-10-16T03:14:29Z
2017-10-16T01:14:39Z,42.805,6.029,13.3001,4.59999,2471.942,2017-10-16T03:16:04Z
2017-10-16T01:16:14Z,42.805,6.029,13.2996,4.59998,2471.934,2017-10-16T03:17:39Z
2017-10-16T01:17:49Z,42.805,6.029,13.3019,4.60003,2471.979,2017-10-16T03:19:14Z
2017-10-16T01:19:24Z,42.805,6.029,13.2988,4.60018,2471.919,2017-10-16T03:20:49Z
2017-10-16T01:20:59Z,42.805,6.029,13.2990,4.60006,2471.942,2017-10-16T03:22:23Z
2017-10-16T01:22:34Z,42.805,6.029,13.2982,4.60011,2471.971,2017-10-16T03:23:58Z
2017-10-16T01:24:08Z,42.805,6.029,13.2981,4.59997,2471.942,2017-10-16T03:25:33Z
2017-10-16T01:25:43Z,42.805,6.029,13.2985,4.60006,2471.971,2017-10-16T03:27:08Z
2017-10-16T01:27:18Z,42.805,6.029,13.2991,4.60018,2471.957,2017-10-16T03:28:43Z
2017-10-16T01:28:53Z,42.805,6.029,13.2985,4.60018,2471.964,2017-10-16T03:30:18Z
2017-10-16T01:30:28Z,42.805,6.029,13.2991,4.60003,2471.957,2017-10-16T03:31:52Z
2017-10-16T01:32:03Z,42.805,6.029,13.2993,4.59992,2471.979,2017-10-16T03:33:27Z
2017-10-16T01:33:37Z,42.805,6.029,13.3014,4.59996,2471.942,2017-10-16T03:35:02Z
2017-10-16T01:35:12Z,42.805,6.029,13.3006,4.60006,2471.979,2017-10-16T03:36:37Z
2017-10-16T01:36:47Z,42.805,6.029,13.2995,4.60010,2471.971,2017-10-16T03:38:12Z
2017-10-16T01:38:22Z,42.805,6.029,13.2987,4.60001,2471.964,2017-10-16T03:39:47Z
2017-10-16T01:39:57Z,42.805,6.029,13.2989,4.60006,2471.957,2017-10-16T03:41:21Z
2017-10-16T01:41:32Z,42.805,6.029,13.3000,4.59989,2471.979,2017-10-16T03:42:56Z
2017-10-16T01:43:06Z,42.805,6.029,13.2986,4.60013,2471.979,2017-10-16T03:44:31Z
2017-10-16T01:44:41Z,42.805,6.029,13.2988,4.59999,2471.979,2017-10-16T03:46:06Z
2017-10-16T01:46:16Z,42.805,6.029,13.2991,4.60010,2471.987,2017-10-16T03:47:41Z
2017-10-16T01:47:51Z,42.805,6.029,13.2989,4.60015,2471.957,2017-10-16T03:49:16Z
2017-10-16T01:49:26Z,42.805,6.029,13.2992,4.60012,2471.979,2017-10-16T03:50:51Z
2017-10-16T01:51:01Z,42.805,6.029,13.2984,4.59998,2471.979,2017-10-16T03:52:25Z
2017-10-16T01:52:35Z,42.805,6.029,13.2983,4.59998,2471.979,2017-10-16T03:54:00Z
2017-10-16T01:54:10Z,42.805,6.029,13.2986,4.59999,2471.994,2017-10-16T03:55:35Z
2017-10-16T01:55:45Z,42.805,6.029,13.2987,4.60012,2471.979,2017-10-16T03:57:10Z
2017-10-16T01:57:20Z,42.805,6.029,13.2984,4.60007,2471.979,2017-10-16T03:58:45Z
2017-10-16T01:58:55Z,42.805,6.029,13.2997,4.60012,2472.002,2017-10-16T04:00:20Z
2017-10-16T02:00:30Z,42.805,6.029,13.2987,4.60016,2472.002,2017-10-16T04:01:54Z
2017-10-16T02:02:04Z,42.805,6.029,13.2992,4.59997,2471.942,2017-10-16T04:03:29Z
2017-10-16T02:03:39Z,42.805,6.029,13.2998,4.60004,2471.957,2017-10-16T04:05:04Z
2017-10-16T02:05:14Z,42.805,6.029,13.2997,4.60006,2472.002,2017-10-16T04:06:39Z
2017-10-16T02:06:49Z,42.805,6.029,13.2998,4.59993,2471.987,2017-10-16T04:08:14Z
2017-10-16T02:08:24Z,42.805,6.029,13.2986,4.60010,2471.957,2017-10-16T04:09:49Z
2017-10-16T02:09:59Z,42.805,6.029,13.2986,4.60005,2471.957,2017-10-16T04:11:23Z
2017-10-16T02:11:33Z,42.805,6.029,13.2998,4.60007,2471.979,2017-10-16T04:12:58Z
2017-10-16T02:13:08Z,42.805,6.029,13.2993,4.60003,2472.024,2017-10-16T04:14:33Z
2017-10-16T02:14:43Z,42.805,6.029,13.2995,4.60008,2471.957,2017-10-16T04:16:08Z
2017-10-16T02:16:18Z,42.805,6.029,13.2994,4.60014,2471.979,2017-10-16T04:17:43Z
2017-10-16T02:17:53Z,42.805,6.029,13.2986,4.60002,2472.002,2017-10-16T04:19:18Z
2017-10-16T02:19:28Z,42.805,6.029,13.3021,4.59998,2471.979,2017-10-16T04:20:52Z
2017-10-16T02:21:03Z,42.805,6.029,13.2988,4.60001,2471.979,2017-10-16T04:22:27Z
2017-10-16T02:22:37Z,42.805,6.029,13.2985,4.59998,2471.987,2017-10-16T04:24:02Z
2017-10-16T02:24:12Z,42.805,6.029,13.2979,4.60006,2471.979,2017-10-16T04:25:37Z
2017-10-16T02:25:47Z,42.805,6.029,13.2985,4.60006,2472.024,2017-10-16T04:27:12Z
2017-10-16T02:27:22Z,42.805,6.029,13.2990,4.60001,2472.002,2017-10-16T04:28:47Z
2017-10-16T02:28:57Z,42.805,6.029,13.2982,4.60021,2472.002,2017-10-16T04:30:21Z
2017-10-16T02:30:32Z,42.805,6.029,13.2987,4.59998,2472.024,2017-10-16T04:31:56Z
2017-10-16T02:32:06Z,42.805,6.029,13.2992,4.60003,2472.002,2017-10-16T04:33:31Z
2017-10-16T02:33:41Z,42.805,6.029,13.2986,4.60024,2472.002,2017-10-16T04:35:06Z
2017-10-16T02:35:16Z,42.805,6.029,13.2995,4.60002,2472.01,2017-10-16T04:36:41Z
2017-10-16T02:36:51Z,42.805,6.029,13.2985,4.60012,2472.047,2017-10-16T04:38:16Z
2017-10-16T02:38:26Z,42.805,6.029,13.3000,4.59992,2472.002,2017-10-16T04:39:50Z
2017-10-16T02:40:01Z,42.805,6.029,13.2991,4.60010,2471.964,2017-10-16T04:41:25Z
2017-10-16T02:41:35Z,42.805,6.029,13.2991,4.60008,2472.002,2017-10-16T04:43:00Z
2017-10-16T02:43:10Z,42.805,6.029,13.3004,4.60012,2472.024,2017-10-16T04:44:35Z
2017-10-16T02:44:45Z,42.805,6.029,13.2996,4.60012,2472.024,2017-10-16T04:46:10Z
2017-10-16T02:46:20Z,42.805,6.029,13.2991,4.60006,2472.024,2017-10-16T04:47:45Z
2017-10-16T02:47:55Z,42.805,6.029,13.3001,4.60001,2471.987,2017-10-16T04:49:19Z
2017-10-16T02:49:30Z,42.805,6.029,13.2993,4.60005,2472.002,2017-10-16T04:50:54Z
2017-10-16T02:51:04Z,42.805,6.029,13.2989,4.60035,2472.024,2017-10-16T04:52:29Z
2017-10-16T02:52:39Z,42.805,6.029,13.2996,4.60018,2471.979,2017-10-16T04:54:04Z
2017-10-16T02:54:14Z,42.805,6.029,13.3000,4.60015,2472.024,2017-10-16T04:55:39Z
2017-10-16T02:55:49Z,42.805,6.029,13.3005,4.60015,2471.987,2017-10-16T04:57:14Z
2017-10-16T02:57:24Z,42.805,6.029,13.3000,4.60001,2472.047,2017-10-16T04:58:48Z
2017-10-16T02:58:59Z,42.805,6.029,13.3003,4.60001,2472.024,2017-10-16T05:00:23Z
2017-10-16T03:00:33Z,42.805,6.029,13.2985,4.60004,2472.024,2017-10-16T05:01:58Z
2017-10-16T03:02:08Z,42.805,6.029,13.2984,4.60006,2472.047,2017-10-16T05:03:33Z
2017-10-16T03:03:43Z,42.805,6.029,13.2981,4.60001,2472.024,2017-10-16T05:05:08Z
2017-10-16T03:05:18Z,42.805,6.029,13.2979,4.60015,2472.024,2017-10-16T05:06:43Z
2017-10-16T03:06:53Z,42.805,6.029,13.2991,4.60014,2472.047,2017-10-16T05:08:17Z
2017-10-16T03:08:28Z,42.805,6.029,13.3006,4.60001,2471.987,2017-10-16T05:09:52Z
2017-10-16T03:10:02Z,42.805,6.029,13.3002,4.59998,2472.024,2017-10-16T05:11:27Z
2017-10-16T03:11:37Z,42.805,6.029,13.2989,4.60007,2472.024,2017-10-16T05:13:02Z
2017-10-16T03:13:12Z,42.805,6.029,13.2991,4.60018,2472.024,2017-10-16T05:14:37Z
2017-10-16T03:14:47Z,42.805,6.029,13.3010,4.60006,2472.024,2017-10-16T05:16:12Z
2017-10-16T03:16:22Z,42.805,6.029,13.3021,4.60005,2472.047,2017-10-16T05:17:46Z
2017-10-16T03:17:57Z,42.805,6.029,13.3029,4.60020,2472.01,2017-10-16T05:19:21Z
2017-10-16T03:19:31Z,42.805,6.029,13.3003,4.60001,2472.047,2017-10-16T05:20:56Z
2017-10-16T03:21:06Z,42.805,6.029,13.3020,4.60014,2472.047,2017-10-16T05:22:31Z
2017-10-16T03:22:41Z,42.805,6.029,13.3040,4.60054,2472.047,2017-10-16T05:24:06Z
2017-10-16T03:24:16Z,42.805,6.029,13.2970,4.60015,2472.024,2017-10-16T05:25:41Z
2017-10-16T03:25:51Z,42.805,6.029,13.2988,4.60016,2472.047,2017-10-16T05:27:15Z
2017-10-16T03:27:26Z,42.805,6.029,13.2985,4.60023,2472.032,2017-10-16T05:28:50Z
2017-10-16T03:29:00Z,42.805,6.029,13.2996,4.60039,2472.047,2017-10-16T05:30:25Z
2017-10-16T03:30:35Z,42.805,6.029,13.2998,4.60016,2472.024,2017-10-16T05:32:00Z
2017-10-16T03:32:10Z,42.805,6.029,13.3001,4.60009,2472.047,2017-10-16T05:33:35Z
2017-10-16T03:33:45Z,42.805,6.029,13.2987,4.60018,2472.024,2017-10-16T05:35:10Z
2017-10-16T03:35:20Z,42.805,6.029,13.2999,4.60019,2472.047,2017-10-16T05:36:44Z
2017-10-16T03:36:55Z,42.805,6.029,13.3006,4.60018,2472.002,2017-10-16T05:38:19Z
2017-10-16T03:38:29Z,42.805,6.029,13.2991,4.60018,2472.069,2017-10-16T05:39:54Z
2017-10-16T03:40:04Z,42.805,6.029,13.3003,4.60025,2472.055,2017-10-16T05:41:29Z
2017-10-16T03:41:39Z,42.805,6.029,13.3010,4.60011,2472.055,2017-10-16T05:43:04Z
2017-10-16T03:43:14Z,42.805,6.029,13.3002,4.60026,2472.047,2017-10-16T05:44:39Z
2017-10-16T03:44:49Z,42.805,6.029,13.3005,4.60024,2472.047,2017-10-16T05:46:14Z
2017-10-16T03:46:24Z,42.805,6.029,13.3009,4.60009,2472.047,2017-10-16T05:47:48Z
2017-10-16T03:47:58Z,42.805,6.029,13.2950,4.60001,2472.047,2017-10-16T05:49:23Z
2017-10-16T03:49:33Z,42.805,6.029,13.2994,4.60011,2472.047,2017-10-16T05:50:58Z
2017-10-16T03:51:08Z,42.805,6.029,13.3000,4.60058,2472.047,2017-10-16T05:52:33Z
2017-10-16T03:52:43Z,42.805,6.029,13.3013,4.60045,2472.01,2017-10-16T05:54:08Z
2017-10-16T03:54:18Z,42.805,6.029,13.2991,4.60018,2472.024,2017-10-16T05:55:43Z
2017-10-16T03:55:53Z,42.805,6.029,13.2990,4.60023,2472.032,2017-10-16T05:57:17Z
2017-10-16T03:57:28Z,42.805,6.029,13.3005,4.60044,2472.047,2017-10-16T05:58:52Z
2017-10-16T03:59:02Z,42.805,6.029,13.3001,4.60031,2472.069,2017-10-16T06:00:27Z
2017-10-16T04:00:37Z,42.805,6.029,13.2982,4.60024,2472.024,2017-10-16T06:02:02Z
2017-10-16T04:02:12Z,42.805,6.029,13.2995,4.60021,2472.047,2017-10-16T06:03:37Z
2017-10-16T04:03:47Z,42.805,6.029,13.3011,4.60029,2472.047,2017-10-16T06:05:12Z
2017-10-16T04:05:22Z,42.805,6.029,13.3000,4.60023,2472.047,2017-10-16T06:06:46Z
2017-10-16T04:06:57Z,42.805,6.029,13.3008,4.60025,2472.047,2017-10-16T06:08:21Z
2017-10-16T04:08:31Z,42.805,6.029,13.3004,4.60018,2472.047,2017-10-16T06:09:56Z
2017-10-16T04:10:06Z,42.805,6.029,13.2991,4.60025,2472.077,2017-10-16T06:11:31Z
2017-10-16T04:11:41Z,42.805,6.029,13.2970,4.60021,2472.047,2017-10-16T06:13:06Z
2017-10-16T04:13:16Z,42.805,6.029,13.3005,4.60029,2472.047,2017-10-16T06:14:41Z
2017-10-16T04:14:51Z,42.805,6.029,13.3018,4.60023,2472.047,2017-10-16T06:16:15Z
2017-10-16T04:16:26Z,42.805,6.029,13.3002,4.60019,2472.047,2017-10-16T06:17:50Z
2017-10-16T04:18:00Z,42.805,6.029,13.2995,4.60046,2472.047,2017-10-16T06:19:25Z
2017-10-16T04:19:35Z,42.805,6.029,13.3002,4.60041,2472.047,2017-10-16T06:21:00Z
2017-10-16T04:21:10Z,42.805,6.029,13.2991,4.60056,2472.069,2017-10-16T06:22:35Z
2017-10-16T04:22:45Z,42.805,6.029,13.3040,4.60040,2472.069,2017-10-16T06:24:10Z
2017-10-16T04:24:20Z,42.805,6.029,13.3019,4.60016,2472.069,2017-10-16T06:25:44Z
2017-10-16T04:25:55Z,42.805,6.029,13.2996,4.60026,2472.069,2017-10-16T06:27:19Z
2017-10-16T04:27:29Z,42.805,6.029,13.2991,4.60038,2472.069,2017-10-16T06:28:54Z
2017-10-16T04:29:04Z,42.805,6.029,13.3008,4.60020,2472.024,2017-10-16T06:30:29Z
2017-10-16T04:30:39Z,42.805,6.029,13.3008,4.60009,2472.047,2017-10-16T06:32:04Z
2017-10-16T04:32:14Z,42.805,6.029,13.3015,4.60027,2472.069,2017-10-16T06:33:39Z
2017-10-16T04:33:49Z,42.805,6.029,13.2996,4.60031,2472.069,2017-10-16T06:35:13Z
2017-10-16T04:35:24Z,42.805,6.029,13.3002,4.60035,2472.032,2017-10-16T06:36:48Z
2017-10-16T04:36:58Z,42.805,6.029,13.3004,4.60021,2472.032,2017-10-16T06:38:23Z
2017-10-16T04:38:33Z,42.805,6.029,13.3006,4.60029,2472.055,2017-10-16T06:39:58Z
2017-10-16T04:40:08Z,42.805,6.029,13.3008,4.60003,2472.047,2017-10-16T06:41:33Z
2017-10-16T04:41:43Z,42.805,6.029,13.2996,4.60018,2472.047,2017-10-16T06:43:08Z
2017-10-16T04:43:18Z,42.805,6.029,13.2998,4.60001,2472.069,2017-10-16T06:44:42Z
2017-10-16T04:44:53Z,42.805,6.029,13.3001,4.60021,2472.047,2017-10-16T06:46:17Z
2017-10-16T04:46:27Z,42.805,6.029,13.3023,4.59992,2472.055,2017-10-16T06:47:52Z
2017-10-16T04:48:02Z,42.805,6.029,13.3004,4.60009,2472.047,2017-10-16T06:49:27Z
2017-10-16T04:49:37Z,42.805,6.029,13.2987,4.60028,2472.01,2017-10-16T06:51:02Z
2017-10-16T04:51:12Z,42.805,6.029,13.2994,4.60005,2472.077,2017-10-16T06:52:37Z
2017-10-16T04:52:47Z,42.805,6.029,13.2990,4.60007,2472.032,2017-10-16T06:54:11Z
2017-10-16T04:54:22Z,42.805,6.029,13.2996,4.59998,2472.069,2017-10-16T06:55:46Z
2017-10-16T04:55:56Z,42.805,6.029,13.2998,4.60002,2472.024,2017-10-16T06:57:21Z
2017-10-16T04:57:31Z,42.805,6.029,13.2994,4.59989,2472.047,2017-10-16T06:58:56Z
2017-10-16T04:59:06Z,42.805,6.029,13.2985,4.60010,2472.032,2017-10-16T07:00:31Z
2017-10-16T05:00:41Z,42.805,6.029,13.2998,4.60008,2472.047,2017-10-16T07:02:06Z
2017-10-16T05:02:16Z,42.805,6.029,13.2997,4.60008,2472.069,2017-10-16T07:03:40Z
2017-10-16T05:03:51Z,42.805,6.029,13.2993,4.60012,2472.047,2017-10-16T07:05:15Z
2017-10-16T05:05:25Z,42.805,6.029,13.2988,4.60023,2472.069,2017-10-16T07:06:50Z
2017-10-16T05:07:00Z,42.805,6.029,13.3000,4.60011,2472.069,2017-10-16T07:08:25Z
2017-10-16T05:08:35Z,42.805,6.029,13.3014,4.60012,2472.055,2017-10-16T07:10:00Z
2017-10-16T05:10:10Z,42.805,6.029,13.2999,4.60006,2472.062,2017-10-16T07:11:35Z
2017-10-16T05:11:45Z,42.805,6.029,13.3003,4.60003,2472.069,2017-10-16T07:13:09Z
2017-10-16T05:13:20Z,42.805,6.029,13.3003,4.60009,2472.047,2017-10-16T07:14:44Z
2017-10-16T05:14:54Z,42.805,6.029,13.3003,4.59999,2472.047,2017-10-16T07:16:19Z
2017-10-16T05:16:29Z,42.805,6.029,13.3001,4.60003,2472.024,2017-10-16T07:17:54Z
2017-10-16T05:18:04Z,42.805,6.029,13.2987,4.59999,2472.047,2017-10-16T07:19:29Z
2017-10-16T05:19:39Z,42.805,6.029,13.2987,4.60000,2472.032,2017-10-16T07:21:04Z
2017-10-16T05:21:14Z,42.805,6.029,13.2992,4.60006,2472.047,2017-10-16T07:22:38Z
2017-10-16T05:22:49Z,42.805,6.029,13.2986,4.60003,2472.047,2017-10-16T07:24:13Z
2017-10-16T05:24:23Z,42.805,6.029,13.2991,4.60007,2472.032,2017-10-16T07:25:48Z
2017-10-16T05:25:58Z,42.805,6.029,13.2991,4.60001,2472.047,2017-10-16T07:27:23Z
2017-10-16T05:27:33Z,42.805,6.029,13.3011,4.59998,2472.069,2017-10-16T07:28:58Z
2017-10-16T05:29:08Z,42.805,6.029,13.2990,4.59992,2472.047,2017-10-16T07:30:33Z
2017-10-16T05:30:43Z,42.805,6.029,13.3008,4.60000,2472.069,2017-10-16T07:32:08Z
2017-10-16T05:32:18Z,42.805,6.029,13.2979,4.60010,2472.084,2017-10-16T07:33:42Z
2017-10-16T05:33:52Z,42.805,6.029,13.2994,4.60006,2472.047,2017-10-16T07:35:17Z
2017-10-16T05:35:27Z,42.805,6.029,13.2987,4.60012,2472.047,2017-10-16T07:36:52Z
2017-10-16T05:37:02Z,42.805,6.029,13.2988,4.60009,2472.069,2017-10-16T07:38:27Z
2017-10-16T05:38:37Z,42.805,6.029,13.2988,4.60003,2472.047,2017-10-16T07:40:02Z
2017-10-16T05:40:12Z,42.805,6.029,13.2983,4.60004,2472.047,2017-10-16T07:41:37Z
2017-10-16T05:41:47Z,42.805,6.029,13.2994,4.60006,2472.024,2017-10-16T07:43:11Z
2017-10-16T05:43:21Z,42.805,6.029,13.3018,4.60003,2472.047,2017-10-16T07:44:46Z
2017-10-16T05:44:56Z,42.805,6.029,13.2993,4.59998,2472.069,2017-10-16T07:46:21Z
2017-10-16T05:46:31Z,42.805,6.029,13.2999,4.60002,2472.047,2017-10-16T07:47:56Z
2017-10-16T05:48:06Z,42.805,6.029,13.2989,4.59992,2472.055,2017-10-16T07:49:31Z
2017-10-16T05:49:41Z,42.805,6.029,13.2981,4.60008,2472.069,2017-10-16T07:51:06Z
2017-10-16T05:51:16Z,42.805,6.029,13.2991,4.59995,2472.01,2017-10-16T07:52:40Z
2017-10-16T05:52:51Z,42.805,6.029,13.2979,4.59998,2472.024,2017-10-16T07:54:15Z
2017-10-16T05:54:25Z,42.805,6.029,13.2974,4.60018,2472.055,2017-10-16T07:55:50Z
2017-10-16T05:56:00Z,42.805,6.029,13.2975,4.59998,2472.084,2017-10-16T07:57:25Z
2017-10-16T05:57:35Z,42.805,6.029,13.2982,4.60012,2472.047,2017-10-16T07:59:00Z
2017-10-16T05:59:10Z,42.805,6.029,13.2978,4.60005,2472.069,2017-10-16T08:00:35Z
2017-10-16T06:00:45Z,42.805,6.029,13.2986,4.59995,2472.084,2017-10-16T08:02:09Z
2017-10-16T06:02:20Z,42.805,6.029,13.2980,4.59989,2472.01,2017-10-16T08:03:44Z
2017-10-16T06:03:54Z,42.805,6.029,13.2986,4.60006,2472.032,2017-10-16T08:05:19Z
2017-10-16T06:05:29Z,42.805,6.029,13.2993,4.59992,2472.047,2017-10-16T08:06:54Z
2017-10-16T06:07:04Z,42.805,6.029,13.2991,4.59992,2472.047,2017-10-16T08:08:29Z
2017-10-16T06:08:39Z,42.805,6.029,13.2978,4.60000,2472.062,2017-10-16T08:10:04Z
2017-10-16T06:10:14Z,42.805,6.029,13.2975,4.59998,2472.055,2017-10-16T08:11:38Z
2017-10-16T06:11:49Z,42.805,6.029,13.2977,4.60000,2472.055,2017-10-16T08:13:13Z
2017-10-16T06:13:23Z,42.805,6.029,13.2983,4.59993,2472.047,2017-10-16T08:14:48Z
2017-10-16T06:14:58Z,42.805,6.029,13.3000,4.59997,2472.055,2017-10-16T08:16:23Z
2017-10-16T06:16:33Z,42.805,6.029,13.2982,4.59999,2472.047,2017-10-16T08:17:58Z
2017-10-16T06:18:08Z,42.805,6.029,13.2982,4.59992,2472.024,2017-10-16T08:19:33Z
2017-10-16T06:19:43Z,42.805,6.029,13.2981,4.60001,2472.047,2017-10-16T08:21:07Z
2017-10-16T06:21:18Z,42.805,6.029,13.2983,4.60010,2472.055,2017-10-16T08:22:42Z
2017-10-16T06:22:52Z,42.805,6.029,13.2996,4.59997,2472.047,2017-10-16T08:24:17Z
2017-10-16T06:24:27Z,42.805,6.029,13.2978,4.59995,2472.032,2017-10-16T08:25:52Z
2017-10-16T06:26:02Z,42.805,6.029,13.2974,4.59992,2472.032,2017-10-16T08:27:27Z
2017-10-16T06:27:37Z,42.805,6.029,13.2989,4.59986,2472.032,2017-10-16T08:29:02Z
2017-10-16T06:29:12Z,42.805,6.029,13.2990,4.60001,2472.024,2017-10-16T08:30:36Z
2017-10-16T06:30:47Z,42.805,6.029,13.2985,4.60000,2472.032,2017-10-16T08:32:11Z
2017-10-16T06:32:21Z,42.805,6.029,13.2984,4.59995,2472.039,2017-10-16T08:33:46Z
2017-10-16T06:33:56Z,42.805,6.029,13.2984,4.59988,2472.032,2017-10-16T08:35:21Z
2017-10-16T06:35:31Z,42.805,6.029,13.2982,4.59990,2472.047,2017-10-16T08:36:56Z
2017-10-16T06:37:06Z,42.805,6.029,13.2975,4.59997,2472.032,2017-10-16T08:38:31Z
2017-10-16T06:38:41Z,42.805,6.029,13.2975,4.59989,2472.047,2017-10-16T08:40:05Z
2017-10-16T06:40:16Z,42.805,6.029,13.2987,4.59999,2472.024,2017-10-16T08:41:40Z
2017-10-16T06:41:50Z,42.805,6.029,13.2984,4.59999,2472.024,2017-10-16T08:43:15Z
2017-10-16T06:43:25Z,42.805,6.029,13.2981,4.60002,2472.032,2017-10-16T08:44:50Z
2017-10-16T06:45:00Z,42.805,6.029,13.2978,4.60001,2472.047,2017-10-16T08:46:25Z
2017-10-16T06:46:35Z,42.805,6.029,13.2982,4.59986,2472.024,2017-10-16T08:48:00Z
2017-10-16T06:48:10Z,42.805,6.029,13.2981,4.60011,2472.032,2017-10-16T08:49:35Z
2017-10-16T06:49:45Z,42.805,6.029,13.2978,4.59994,2472.024,2017-10-16T08:51:09Z
2017-10-16T06:51:19Z,42.805,6.029,13.2978,4.60002,2472.024,2017-10-16T08:52:44Z
2017-10-16T06:52:54Z,42.805,6.029,13.2984,4.59995,2472.047,2017-10-16T08:54:19Z
2017-10-16T06:54:29Z,42.805,6.029,13.3015,4.60002,2472.024,2017-10-16T08:55:54Z
2017-10-16T06:56:04Z,42.805,6.029,13.3007,4.59994,2472.002,2017-10-16T08:57:29Z
2017-10-16T06:57:39Z,42.805,6.029,13.2986,4.59989,2472.047,2017-10-16T08:59:04Z
2017-10-16T06:59:14Z,42.805,6.029,13.2976,4.60021,2472.024,2017-10-16T09:00:38Z
2017-10-16T07:00:48Z,42.805,6.029,13.2991,4.60006,2472.002,2017-10-16T09:02:13Z
2017-10-16T07:02:23Z,42.805,6.029,13.2968,4.60003,2472.002,2017-10-16T09:03:48Z
2017-10-16T07:03:58Z,42.805,6.029,13.2986,4.60005,2472.047,2017-10-16T09:05:23Z
2017-10-16T07:05:33Z,42.805,6.029,13.2975,4.60005,2472.002,2017-10-16T09:06:58Z
2017-10-16T07:07:08Z,42.805,6.029,13.2983,4.60030,2472.002,2017-10-16T09:08:33Z
2017-10-16T07:08:43Z,42.805,6.029,13.2998,4.60020,2471.987,2017-10-16T09:10:07Z
2017-10-16T07:10:17Z,42.805,6.029,13.2991,4.60014,2472.024,2017-10-16T09:11:42Z
2017-10-16T07:11:52Z,42.805,6.029,13.2985,4.60021,2472.047,2017-10-16T09:13:17Z
2017-10-16T07:13:27Z,42.805,6.029,13.2973,4.60003,2472.047,2017-10-16T09:14:52Z
2017-10-16T07:15:02Z,42.805,6.029,13.3010,4.60009,2472.047,2017-10-16T09:16:27Z
2017-10-16T07:16:37Z,42.805,6.029,13.3017,4.60003,2472.01,2017-10-16T09:18:02Z
2017-10-16T07:18:12Z,42.805,6.029,13.2989,4.60012,2472.024,2017-10-16T09:19:36Z
2017-10-16T07:19:46Z,42.805,6.029,13.2998,4.59996,2472.024,2017-10-16T09:21:11Z
2017-10-16T07:21:21Z,42.805,6.029,13.3000,4.60012,2472.024,2017-10-16T09:22:46Z
2017-10-16T07:22:56Z,42.805,6.029,13.2982,4.60002,2471.987,2017-10-16T09:24:21Z
2017-10-16T07:24:31Z,42.805,6.029,13.2986,4.60008,2472.024,2017-10-16T09:25:56Z
2017-10-16T07:26:06Z,42.805,6.029,13.2994,4.60008,2472.024,2017-10-16T09:27:31Z
2017-10-16T07:27:41Z,42.805,6.029,13.2986,4.59995,2472.024,2017-10-16T09:29:05Z
2017-10-16T07:29:15Z,42.805,6.029,13.2988,4.60004,2472.047,2017-10-16T09:30:40Z
2017-10-16T07:30:50Z,42.805,6.029,13.3000,4.60001,2472.002,2017-10-16T09:32:15Z
2017-10-16T07:32:25Z,42.805,6.029,13.2994,4.60019,2472.002,2017-10-16T09:33:50Z
2017-10-16T07:34:00Z,42.805,6.029,13.2996,4.60026,2472.002,2017-10-16T09:35:25Z
2017-10-16T07:35:35Z,42.805,6.029,13.2986,4.60025,2472.024,2017-10-16T09:37:00Z
2017-10-16T07:37:10Z,42.805,6.029,13.2983,4.60018,2472.01,2017-10-16T09:38:34Z
2017-10-16T07:38:45Z,42.805,6.029,13.2993,4.60014,2471.987,2017-10-16T09:40:09Z
2017-10-16T07:40:19Z,42.805,6.029,13.2992,4.60025,2471.964,2017-10-16T09:41:44Z
2017-10-16T07:41:54Z,42.805,6.029,13.2985,4.60037,2472.039,2017-10-16T09:43:19Z
2017-10-16T07:43:29Z,42.805,6.029,13.2991,4.60003,2472.024,2017-10-16T09:44:54Z
2017-10-16T07:45:04Z,42.805,6.029,13.2986,4.60006,2472.032,2017-10-16T09:46:29Z